Flag for Canada Weather past 2 weeks in Lethbridge, Alberta, Canada

Now
36 °F

Passing clouds.


Feels Like: 24 °F
Forecast: 16 / 30 °F
Wind: 21 mph from West

Location: Lethbridge

Current Time: Dec 17, 2014 at 5:54:41 PM

Latest Report: Dec 17, 2014 at 5:00 PM


Visibility: 40 mi

Pressure: 29.93 "Hg

Humidity: 70%

Dew point: 27 °F

Location of LethbridgeLocation

Historic Weather in Lethbridge — Graph

°F

Lethbridge temperature yesterday

Maximum temperature yesterday: 21 °F (at 4:00 PM)
Minimum temperature yesterday: 5 °F (at 1:02 AM)
Average temperature yesterday: 12 °F

Past Weeks' High & Low Weather Summary

 TemperatureHumidityPressure
High55 °F (Dec 12, 1:00 PM)100% (Dec 5, 4:00 PM)30.47 "Hg (Dec 5, 4:00 PM)
Low0 °F (Dec 15, 4:00 AM)44% (Dec 11, 4:00 AM)29.49 "Hg (Dec 11, 2:00 AM)
Average29 °F80%30.03 "Hg
* Reported Dec 2 4:00 PM — Dec 17 4:00 PM, Lethbridge, Weather by CustomWeather, © 2014

Note: Actual official high and low records may vary slightly from our data, if they occured in-between our weather recording intervals... More about our weather records

Advertising

Lethbridge weather history for previous 24 hours

 ConditionsComfort  
Time TempWeatherWind HumidityBarometerVisibility
4:00 PM
Dec 17
34 °FPassing clouds.16 mph75%29.92 "Hg40 mi
3:00 PM36 °FPassing clouds.15 mph75%29.92 "Hg40 mi
2:00 PM34 °FScattered clouds.13 mph75%29.92 "Hg40 mi
1:00 PM28 °FScattered clouds.9 mph86%29.94 "Hg40 mi
12:00 PM28 °FScattered clouds.12 mph86%29.95 "Hg40 mi
11:00 AM25 °FScattered clouds.18 mph86%29.96 "Hg40 mi
10:00 AM23 °FPartly sunny.21 mph86%29.98 "Hg40 mi
9:00 AM21 °FScattered clouds.17 mph86%29.98 "Hg40 mi
8:00 AM19 °FPassing clouds.21 mph93%29.98 "Hg40 mi
7:00 AM21 °FPassing clouds.21 mph86%29.99 "Hg15 mi
6:00 AM19 °FPassing clouds.18 mph86%30.00 "Hg15 mi
5:00 AM21 °FClear.20 mph86%30.00 "Hg9 mi
4:00 AM21 °FClear.21 mph86%30.00 "Hg9 mi
3:00 AM21 °FClear.25 mph86%30.01 "Hg9 mi
12:00 AM21 °FPassing clouds.22 mph86%30.02 "Hg9 mi
11:00 PM
Dec 16
19 °FPassing clouds.10 mph93%30.04 "Hg9 mi
10:00 PM19 °FPartly cloudy.12 mph100%30.04 "Hg15 mi
9:00 PM19 °FPartly cloudy.8 mph93%30.05 "Hg15 mi
8:00 PM16 °FPartly cloudy.8 mph93%30.09 "Hg15 mi
7:00 PM12 °FPartly cloudy.6 mph92%30.11 "Hg15 mi
6:00 PM14 °FPassing clouds.6 mph100%30.11 "Hg15 mi
5:00 PM19 °FPartly cloudy.10 mph93%30.09 "Hg40 mi
Weather by CustomWeather, © 2014

See weather overviewHow to use our weather pages